Temp
15 15 14 14 14 14 14 14 14 14 14 14 14 14 14 14 13 13 13 14 14 14 14 13 13 13 13 13 14 14 14 14 14
14 14 14 14 14 14 14 14 14 14 14 14 14 14 14 13 12 12 12 13 13 13 12 13 13 13 13 13 13 13 14 14 14
14 14 14 14 14 14 14 14 14 14 14 14 14 14 14 12 12 11 11 12 11 10 10 11 12 13 13 13 13 13 13 13 13
14 14 14 14 14 14 14 14 14 14 14 14 14 14 13 12 12 11 12 12 12 10 11 12 12 12 12 13 13 13 13 13 13
13 13 13 13 13 13 13 13 13 13 13 13 13 12 12 11 10 11 11 12 10 9 10 11 12 12 12 12 12 12 12 12 12
13 13 13 13 13 13 13 13 13 13 13 13 12 11 11 10 10 10 11 11 9 10 11 11 11 11 11 11 11 10 10 11 12
13 13 13 13 13 13 13 13 12 12 12 12 11 11 11 10 10 10 11 10 10 10 10 10 10 11 11 10 9 10 9 10 11
13 12 12 13 12 12 12 12 11 11 11 11 11 11 10 10 10 9 10 10 9 10 10 10 10 10 10 11 11 10 11 10 10
13 12 13 13 13 13 13 12 12 12 12 12 11 11 10 10 9 9 9 9 9 9 9 9 9 9 10 10 10 10 10 10 10
13 13 13 13 13 13 13 12 12 11 11 11 11 11 10 9 8 8 8 8 9 9 9 9 9 9 9 8 9 9 9 9 10
13 13 13 13 13 12 12 12 12 11 11 10 10 10 10 9 8 8 7 8 8 8 8 8 9 9 9 8 8 9 9 9 9
13 13 12 12 12 12 12 11 11 11 10 9 9 9 9 8 8 7 7 7 8 8 8 8 8 9 9 8 7 8 9 9 9
12 12 12 12 12 12 12 12 11 11 11 9 8 7 8 7 7 7 7 7 7 7 7 7 8 8 8 8 8 8 9 8 8
12 12 12 12 12 11 11 11 11 11 11 10 8 8 9 8 7 7 7 7 7 7 7 7 7 7 7 8 7 8 8 8 8
12 11 11 11 11 11 11 11 11 11 11 10 9 9 9 9 8 7 7 7 7 8 8 8 8 7 7 7 7 7 7 7 8
11 11 11 11 11 11 11 11 11 10 10 10 9 8 8 8 8 7 7 7 8 8 7 7 7 7 7 6 6 7 7 7 7
11 11 10 10 10 10 10 10 10 10 10 10 9 9 8 7 8 8 8 7 7 7 7 7 7 7 6 6 7 7 7 7 7
10 10 10 10 10 10 10 9 9 9 9 8 8 8 8 8 8 7 7 6 6 6 7 7 7 6 6 6 6 6 7 7 6
10 10 10 9 9 9 9 9 9 9 9 8 7 7 6 6 7 7 7 6 6 6 5 6 6 6 6 6 6 6 6 6 6
9 9 9 9 9 9 9 8 8 8 8 8 7 7 6 5 5 5 7 7 7 6 5 6 5 5 6 6 6 6 6 6 6
Height
1541 1540 1539 1539 1539 1538 1537 1537 1536 1536 1535 1535 1534 1534 1534 1534 1534 1534 1534 1534 1534 1534 1534 1533 1534 1534 1534 1534 1534 1534 1534 1534 1535
1542 1541 1541 1540 1540 1539 1539 1538 1537 1537 1536 1535 1535 1534 1534 1534 1534 1534 1533 1534 1533 1533 1532 1532 1532 1532 1532 1532 1532 1531 1532 1532 1533
1543 1543 1542 1542 1541 1541 1540 1539 1539 1538 1537 1537 1536 1535 1535 1534 1534 1534 1533 1534 1533 1533 1532 1531 1531 1530 1530 1529 1529 1529 1529 1530 1530
1545 1544 1544 1543 1543 1542 1541 1541 1540 1539 1538 1538 1537 1537 1536 1535 1535 1534 1534 1534 1533 1532 1531 1530 1530 1529 1528 1527 1527 1527 1527 1527 1527
1546 1546 1545 1545 1544 1543 1543 1542 1541 1540 1539 1538 1538 1537 1537 1536 1536 1535 1534 1533 1533 1533 1531 1530 1529 1528 1527 1526 1526 1525 1525 1525 1525
1548 1547 1546 1546 1545 1544 1543 1542 1541 1540 1539 1538 1538 1537 1537 1537 1535 1535 1534 1534 1534 1532 1531 1531 1529 1528 1527 1526 1524 1524 1524 1523 1523
1548 1548 1547 1546 1545 1544 1543 1542 1541 1540 1539 1538 1537 1537 1537 1537 1534 1535 1534 1534 1534 1533 1532 1531 1530 1529 1528 1527 1525 1524 1523 1522 1521
1549 1548 1547 1546 1545 1544 1543 1542 1541 1540 1539 1538 1537 1536 1536 1537 1535 1535 1534 1534 1533 1533 1532 1530 1530 1529 1528 1527 1525 1524 1523 1522 1522
1549 1548 1547 1546 1545 1544 1543 1542 1541 1540 1539 1537 1536 1535 1535 1536 1534 1535 1534 1533 1533 1532 1531 1530 1529 1528 1528 1527 1525 1524 1523 1522 1521
1549 1548 1548 1547 1546 1544 1543 1542 1540 1539 1538 1537 1535 1535 1534 1534 1533 1534 1533 1533 1532 1531 1531 1529 1528 1528 1527 1527 1524 1522 1522 1521 1520
1549 1549 1548 1547 1546 1544 1542 1541 1540 1538 1537 1536 1535 1534 1533 1534 1533 1534 1533 1533 1532 1531 1529 1528 1527 1526 1526 1525 1523 1521 1520 1519 1518
1550 1549 1548 1547 1545 1544 1543 1541 1539 1538 1537 1535 1535 1534 1533 1534 1534 1533 1533 1532 1531 1530 1529 1527 1526 1525 1523 1522 1521 1518 1517 1517 1516
1549 1549 1548 1547 1545 1544 1543 1541 1539 1537 1536 1535 1535 1534 1533 1533 1533 1533 1533 1532 1532 1530 1529 1527 1525 1523 1521 1520 1518 1516 1515 1514 1513
1549 1549 1548 1547 1545 1544 1542 1541 1539 1537 1536 1534 1534 1533 1533 1532 1532 1532 1532 1531 1530 1528 1526 1525 1523 1522 1520 1519 1517 1515 1513 1512 1510
1549 1548 1548 1547 1545 1544 1543 1541 1539 1537 1536 1534 1533 1532 1532 1532 1531 1531 1530 1529 1529 1526 1524 1522 1520 1519 1518 1518 1516 1514 1512 1510 1508
1548 1548 1547 1546 1545 1544 1543 1541 1540 1538 1536 1534 1533 1532 1532 1532 1531 1530 1529 1529 1527 1525 1523 1521 1519 1518 1516 1515 1514 1512 1510 1508 1506
1548 1547 1546 1546 1545 1544 1543 1541 1540 1538 1536 1534 1533 1533 1534 1533 1532 1532 1530 1528 1527 1525 1522 1520 1518 1517 1515 1513 1512 1510 1508 1506 1503
1547 1546 1546 1545 1543 1542 1541 1541 1539 1538 1536 1535 1535 1533 1533 1531 1530 1529 1528 1527 1525 1524 1521 1518 1517 1516 1514 1512 1510 1508 1506 1504 1501
1545 1545 1544 1543 1542 1542 1540 1539 1538 1536 1535 1534 1534 1533 1532 1531 1529 1528 1527 1526 1524 1521 1519 1517 1514 1513 1512 1510 1508 1506 1504 1501 1500
1543 1542 1542 1542 1541 1540 1539 1538 1536 1535 1534 1533 1532 1531 1530 1529 1528 1523 1522 1522 1521 1520 1518 1515 1513 1510 1509 1508 1506 1504 1501 1499 1497
Wind_Speed
11 11 10 11 11 12 11 11 10 10 10 9 9 8 7 4 7 5 6 6 8 10 10 9 8 8 9 9 10 9 10 10 10
11 11 12 12 13 12 12 12 11 11 10 10 9 8 7 7 8 7 7 7 7 5 5 9 9 12 13 13 11 10 10 11 12
12 13 13 14 14 13 14 13 12 12 11 11 10 9 7 6 6 9 7 8 6 6 7 8 9 10 12 13 14 13 12 11 12
13 13 14 14 14 14 14 13 13 13 13 12 12 10 9 9 11 4 7 7 6 7 9 10 10 10 11 11 11 11 12 13 12
13 13 13 13 13 13 13 13 12 11 10 11 11 10 10 9 6 8 9 6 7 9 10 11 11 11 11 11 10 9 10 12 14
12 12 12 12 12 11 11 11 10 10 10 10 9 8 8 5 5 8 9 6 8 9 12 12 13 13 12 11 10 8 10 10 11
11 11 11 10 11 11 11 11 12 11 10 10 7 7 5 5 8 9 9 7 9 8 7 7 8 11 11 12 11 8 8 11 11
10 10 11 11 12 11 11 10 11 11 11 10 8 6 5 5 8 9 10 4 3 3 5 6 6 5 10 10 9 9 8 9 10
8 9 9 10 11 12 12 12 12 10 11 10 9 6 4 3 8 9 10 6 5 5 6 8 6 5 5 8 8 9 8 9 7
7 8 10 12 13 13 12 12 11 11 11 10 9 7 3 1 5 7 9 6 7 9 9 9 7 7 7 8 8 9 8 9 9
7 9 11 11 12 12 12 13 11 12 12 11 11 8 6 4 0 3 5 7 9 9 8 9 9 8 9 8 8 11 11 12 11
8 9 10 11 11 12 12 12 11 10 9 7 10 11 7 4 0 3 6 9 9 10 8 10 11 11 10 9 9 9 10 9 10
7 8 9 10 11 12 11 12 12 12 11 8 7 4 3 1 2 4 6 7 10 11 14 15 14 12 10 11 11 11 11 10 10
5 7 9 10 11 12 12 12 13 14 12 7 5 6 6 4 3 3 8 11 11 12 13 14 13 12 11 11 11 12 12 13 13
5 6 8 9 10 11 12 12 12 14 13 9 7 8 9 7 7 6 8 12 13 14 13 12 11 12 11 10 11 13 14 14 15
4 6 7 8 9 10 11 12 11 12 12 11 6 7 11 12 14 13 11 10 13 14 13 13 11 10 10 10 12 13 14 15 15
4 5 6 7 8 9 9 9 10 11 13 13 7 5 3 3 10 13 13 13 15 16 15 16 11 11 10 11 13 14 15 14 14
4 5 6 6 6 7 8 9 10 10 10 9 8 4 2 11 6 9 13 14 19 18 17 16 14 14 13 12 12 14 15 15 14
5 6 6 6 7 7 8 8 8 8 8 7 6 5 6 4 6 5 7 10 15 16 18 16 15 16 14 14 14 16 16 16 15
7 8 8 9 9 9 9 8 8 8 8 8 7 6 6 5 8 18 16 16 15 12 17 22 13 15 16 16 15 17 18 17 16
Wind_Direction
41 42 42 41 38 37 36 35 33 31 31 31 31 34 40 20 25 4 334 311 285 283 280 273 269 278 282 288 288 294 278 276 274
42 42 41 39 38 37 37 35 31 30 29 30 32 37 45 45 25 27 356 0 4 341 291 284 280 274 277 280 284 293 285 281 272
42 42 42 40 38 37 37 35 34 31 29 28 29 34 47 45 19 33 342 351 32 10 332 318 312 303 293 286 279 275 277 276 273
49 46 42 40 38 37 35 33 32 32 32 31 31 34 40 28 32 340 337 338 343 349 325 331 326 320 313 310 301 287 274 271 271
47 42 38 35 33 32 29 27 25 25 29 30 35 35 45 31 3 329 339 342 2 353 345 343 341 331 327 321 316 306 294 277 268
44 37 35 32 32 30 31 27 25 21 24 27 34 31 38 16 321 316 333 356 12 356 7 12 11 3 350 333 321 335 329 308 295
37 34 28 23 22 21 24 19 16 12 15 17 17 9 29 23 319 332 343 10 27 20 13 6 21 13 7 5 1 357 341 345 338
27 22 21 20 17 17 17 15 11 12 7 5 3 8 23 56 307 321 335 339 22 340 326 322 328 352 17 20 16 14 7 352 347
32 27 24 21 16 16 13 13 10 9 4 360 359 4 25 49 304 322 338 332 331 360 349 344 345 343 359 356 352 343 330 337 323
33 29 24 22 19 17 16 16 14 12 4 2 359 357 354 319 285 323 326 337 345 347 353 349 354 360 357 351 334 322 325 324 317
32 29 26 25 21 18 17 15 13 10 4 12 4 3 357 65 294 341 2 1 354 346 345 347 347 342 338 343 325 306 310 309 308
32 32 27 22 23 21 16 17 13 12 14 24 10 14 65 93 144 349 332 343 345 342 340 337 330 325 322 322 338 322 317 318 320
34 29 26 22 21 23 18 17 16 16 14 27 24 3 13 90 311 311 327 339 334 334 335 332 328 321 315 310 311 320 312 313 314
27 27 25 22 22 21 22 22 17 18 14 22 356 351 351 350 360 333 323 334 336 333 328 329 326 327 324 313 313 314 315 310 307
14 22 23 21 22 22 22 21 21 19 14 12 18 356 16 11 6 344 332 333 340 342 340 333 330 327 329 325 319 319 318 318 313
5 9 14 16 18 20 20 21 16 21 18 14 4 352 347 360 359 350 325 332 342 345 347 341 333 327 323 324 323 324 323 321 320
346 354 1 6 8 14 13 12 15 12 15 19 19 15 322 342 322 330 344 347 346 342 343 342 342 335 327 327 327 329 329 327 324
321 333 341 343 343 350 357 0 3 5 14 18 22 356 330 334 350 351 352 358 351 342 337 336 334 333 325 323 330 333 334 332 331
299 302 307 315 323 332 337 340 341 343 349 352 358 351 331 326 310 267 317 317 316 320 322 325 314 318 317 320 322 331 330 329 330
282 293 303 308 310 312 312 314 319 321 324 325 324 321 314 296 296 304 306 307 315 311 309 311 308 304 306 307 313 322 323 321 321